• In Latvia
  • List of Countries
  • For 7 days
  • Water Temperature
  • Satellite Maps
  • Weather Map
  • Weather Widgets
  • user-avatar
    Login

    Hourly Weather Tireli

    Today, 19 August, Sunday

    Time Temperature Precipitation Wind Pressure Humidity
    00:00 +16°C° 0 mm 3 mps 763 mmHg 93%
    01:00 +14°C° 0 mm 3 mps 763 mmHg 93%
    02:00 +14°C° 0 mm 3 mps 763 mmHg 93%
    03:00 +13°C° 0 mm 3 mps 763 mmHg 93%
    04:00 +13°C° 0 mm 3 mps 763 mmHg 93%
    05:00 +13°C° 0 mm 4 mps 763 mmHg 92%
    06:00 +15°C° 0 mm 4 mps 762 mmHg 89%
    07:00 +17°C° 0 mm 4 mps 762 mmHg 86%
    08:00 +17°C° 0 mm 5 mps 762 mmHg 82%
    09:00 +19°C° 0 mm 5 mps 762 mmHg 79%
    10:00 +20°C° 0 mm 5 mps 763 mmHg 76%
    11:00 +21°C° 0 mm 5 mps 763 mmHg 73%
    12:00 +21°C° 0.1 mm 5 mps 762 mmHg 73%
    13:00 +22°C° 0.1 mm 5 mps 762 mmHg 73%
    14:00 +22°C° 0.1 mm 6 mps 762 mmHg 73%
    15:00 +22°C° 0.3 mm 5 mps 762 mmHg 74%
    16:00 +22°C° 0.3 mm 5 mps 762 mmHg 75%
    17:00 +22°C° 0.3 mm 4 mps 762 mmHg 77%
    18:00 +21°C° 0.2 mm 4 mps 762 mmHg 81%
    19:00 +20°C° 0.2 mm 3 mps 762 mmHg 85%
    20:00 +19°C° 0.2 mm 3 mps 762 mmHg 89%
    21:00 +18°C° 0 mm 3 mps 762 mmHg 91%
    22:00 +18°C° 0 mm 3 mps 762 mmHg 93%
    23:00 +17°C° 0 mm 3 mps 761 mmHg 95%

    Tomorrow, 20 August, Monday

    Time Temperature Precipitation Wind Pressure Humidity
    00:00 +17°C° 0 mm 3 mps 761 mmHg 95%
    01:00 +17°C° 0 mm 3 mps 761 mmHg 95%
    02:00 +17°C° 0 mm 3 mps 761 mmHg 95%
    03:00 +17°C° 0 mm 3 mps 760 mmHg 95%
    04:00 +17°C° 0 mm 4 mps 760 mmHg 94%
    05:00 +17°C° 0 mm 4 mps 760 mmHg 94%
    06:00 +18°C° 0 mm 4 mps 759 mmHg 90%
    07:00 +19°C° 0 mm 4 mps 759 mmHg 85%
    08:00 +20°C° 0 mm 5 mps 759 mmHg 81%
    09:00 +22°C° 0 mm 5 mps 758 mmHg 73%
    10:00 +23°C° 0 mm 6 mps 758 mmHg 66%
    11:00 +26°C° 0 mm 6 mps 757 mmHg 58%
    12:00 +26°C° 0.1 mm 7 mps 757 mmHg 57%
    13:00 +27°C° 0.1 mm 7 mps 756 mmHg 56%
    14:00 +27°C° 0.1 mm 7 mps 756 mmHg 55%
    15:00 +26°C° 0.2 mm 7 mps 755 mmHg 60%
    16:00 +24°C° 0.2 mm 7 mps 755 mmHg 66%
    17:00 +23°C° 0.2 mm 7 mps 754 mmHg 71%
    18:00 +22°C° 0.1 mm 6 mps 754 mmHg 76%
    19:00 +21°C° 0.1 mm 6 mps 753 mmHg 80%
    20:00 +20°C° 0.1 mm 6 mps 753 mmHg 84%
    21:00 +19°C° 0.1 mm 6 mps 753 mmHg 86%
    22:00 +17°C° 0.1 mm 6 mps 754 mmHg 88%
    23:00 +16°C° 0.1 mm 6 mps 754 mmHg 90%

    Day after tomorrow, 21 August, Tuesday

    Time Temperature Precipitation Wind Pressure Humidity
    00:00 +15°C° 0.1 mm 5 mps 754 mmHg 90%
    01:00 +15°C° 0.1 mm 5 mps 755 mmHg 90%
    02:00 +14°C° 0.1 mm 5 mps 755 mmHg 90%
    03:00 +14°C° 0.2 mm 5 mps 756 mmHg 89%
    04:00 +14°C° 0.2 mm 5 mps 756 mmHg 88%
    05:00 +13°C° 0.2 mm 5 mps 757 mmHg 87%
    06:00 +14°C° 0 mm 5 mps 757 mmHg 81%
    07:00 +15°C° 0 mm 6 mps 758 mmHg 74%
    08:00 +16°C° 0 mm 6 mps 758 mmHg 68%
    09:00 +17°C° 0 mm 6 mps 759 mmHg 63%
    10:00 +19°C° 0 mm 6 mps 759 mmHg 58%
    11:00 +20°C° 0 mm 6 mps 760 mmHg 52%
    12:00 +20°C° 0.1 mm 6 mps 760 mmHg 52%
    13:00 +20°C° 0.1 mm 6 mps 761 mmHg 51%
    14:00 +21°C° 0.1 mm 6 mps 761 mmHg 50%
    15:00 +20°C° 0 mm 6 mps 762 mmHg 51%
    16:00 +20°C° 0 mm 6 mps 762 mmHg 52%
    17:00 +19°C° 0 mm 6 mps 763 mmHg 53%
    18:00 +17°C° 0 mm 5 mps 763 mmHg 59%
    19:00 +15°C° 0 mm 5 mps 763 mmHg 65%
    20:00 +14°C° 0 mm 4 mps 764 mmHg 71%
    21:00 +13°C° 0 mm 4 mps 764 mmHg 74%
    22:00 +12°C° 0 mm 3 mps 765 mmHg 77%
    23:00 +11°C° 0 mm 3 mps 765 mmHg 80%

    22 August, Wednesday

    Time Temperature Precipitation Wind Pressure Humidity
    00:00 +11°C° 0 mm 3 mps 765 mmHg 80%
    01:00 +11°C° 0 mm 3 mps 765 mmHg 81%
    02:00 +11°C° 0 mm 3 mps 766 mmHg 81%
    03:00 +10°C° 0 mm 3 mps 766 mmHg 81%
    04:00 +10°C° 0 mm 3 mps 766 mmHg 80%
    05:00 +10°C° 0 mm 3 mps 766 mmHg 80%
    06:00 +12°C° 0 mm 3 mps 766 mmHg 75%
    07:00 +14°C° 0 mm 3 mps 767 mmHg 70%
    08:00 +16°C° 0 mm 3 mps 767 mmHg 65%
    09:00 +18°C° 0 mm 4 mps 767 mmHg 60%
    10:00 +19°C° 0 mm 4 mps 767 mmHg 56%
    11:00 +21°C° 0 mm 4 mps 767 mmHg 51%
    12:00 +21°C° 0 mm 4 mps 766 mmHg 50%
    13:00 +22°C° 0 mm 4 mps 766 mmHg 49%
    14:00 +22°C° 0 mm 5 mps 766 mmHg 48%
    15:00 +22°C° 0 mm 5 mps 766 mmHg 49%
    16:00 +22°C° 0 mm 5 mps 765 mmHg 51%
    17:00 +22°C° 0 mm 5 mps 765 mmHg 52%
    18:00 +20°C° 0 mm 4 mps 765 mmHg 60%
    19:00 +18°C° 0 mm 4 mps 765 mmHg 67%
    20:00 +16°C° 0 mm 3 mps 765 mmHg 74%
    21:00 +15°C° 0 mm 4 mps 765 mmHg 74%
    22:00 +14°C° 0 mm 4 mps 764 mmHg 75%
    23:00 +14°C° 0 mm 4 mps 764 mmHg 75%

    23 August, Thursday

    Time Temperature Precipitation Wind Pressure Humidity
    00:00 +14°C° 0 mm 4 mps 764 mmHg 73%
    01:00 +14°C° 0 mm 5 mps 764 mmHg 70%
    02:00 +14°C° 0 mm 5 mps 764 mmHg 68%
    03:00 +14°C° 0 mm 5 mps 763 mmHg 67%
    04:00 +14°C° 0 mm 5 mps 763 mmHg 67%
    05:00 +14°C° 0 mm 5 mps 763 mmHg 66%
    06:00 +15°C° 0 mm 5 mps 763 mmHg 65%
    07:00 +16°C° 0 mm 5 mps 762 mmHg 64%
    08:00 +17°C° 0 mm 5 mps 762 mmHg 63%
    09:00 +19°C° 0 mm 5 mps 762 mmHg 61%
    10:00 +21°C° 0 mm 4 mps 762 mmHg 59%
    11:00 +23°C° 0 mm 4 mps 762 mmHg 57%
    12:00 +25°C° 0 mm 4 mps 762 mmHg 54%
    13:00 +26°C° 0 mm 5 mps 761 mmHg 51%
    14:00 +27°C° 0 mm 5 mps 761 mmHg 48%
    15:00 +27°C° 0 mm 4 mps 761 mmHg 51%
    16:00 +26°C° 0 mm 4 mps 761 mmHg 54%
    17:00 +26°C° 0 mm 3 mps 761 mmHg 57%
    18:00 +24°C° 0 mm 3 mps 761 mmHg 64%
    19:00 +22°C° 0 mm 3 mps 761 mmHg 72%
    20:00 +20°C° 0 mm 3 mps 761 mmHg 80%
    21:00 +19°C° 0 mm 3 mps 761 mmHg 82%
    22:00 +19°C° 0 mm 3 mps 761 mmHg 85%
    23:00 +18°C° 0 mm 3 mps 761 mmHg 87%

    24 August, Friday

    Time Temperature Precipitation Wind Pressure Humidity
    00:00 +18°C° 0 mm 3 mps 760 mmHg 87%
    01:00 +18°C° 0 mm 4 mps 760 mmHg 86%
    02:00 +18°C° 0 mm 4 mps 760 mmHg 85%
    03:00 +18°C° 0 mm 4 mps 760 mmHg 85%
    04:00 +17°C° 0 mm 4 mps 760 mmHg 84%
    05:00 +17°C° 0 mm 4 mps 759 mmHg 83%
    06:00 +18°C° 0 mm 4 mps 759 mmHg 80%
    07:00 +19°C° 0 mm 5 mps 759 mmHg 77%
    08:00 +20°C° 0 mm 5 mps 759 mmHg 74%
    09:00 +22°C° 0 mm 5 mps 759 mmHg 69%
    10:00 +23°C° 0 mm 6 mps 758 mmHg 64%
    11:00 +26°C° 0 mm 6 mps 758 mmHg 59%
    12:00 +27°C° 0 mm 6 mps 758 mmHg 58%
    13:00 +27°C° 0 mm 6 mps 757 mmHg 57%
    14:00 +28°C° 0 mm 6 mps 757 mmHg 56%
    15:00 +27°C° 0.1 mm 6 mps 757 mmHg 58%
    16:00 +27°C° 0.1 mm 6 mps 756 mmHg 60%
    17:00 +27°C° 0.1 mm 5 mps 756 mmHg 62%
    18:00 +25°C° 0.2 mm 5 mps 756 mmHg 66%
    19:00 +23°C° 0.2 mm 5 mps 756 mmHg 71%
    20:00 +22°C° 0.2 mm 4 mps 756 mmHg 76%
    21:00 +21°C° 0 mm 4 mps 756 mmHg 75%
    22:00 +21°C° 0 mm 4 mps 756 mmHg 75%
    23:00 +20°C° 0 mm 4 mps 755 mmHg 74%
    Show more